Location: Amherst
(42.5000°N, 72.5000°W)
Time: 00:18:26
(UTC-04:00)

ISS - Pass Details

Date: 14 July 2018
Orbit: 402 x 408 km, 51.6° (Epoch: 23 July)

Event Time Altitude Azimuth Distance (km) Brightness Sun altitude
Exits shadow 02:50:35 - 300° (WNW) 1,605 -0.8 -20.6°
Reaches altitude 10° 02:51:02 10° 305° (NW) 1,469 -0.9 -20.5°
Maximum altitude 02:53:24 18° 351° (N) 1,081 -1.1 -20.3°
Drops below altitude 10° 02:55:47 10° 37° (NE) 1,473 0.2 -20.1°
Sets 02:58:20 0° 57° (ENE) 2,336 1.1 -19.9°
